Overview Statistics Trail Chart Weather Telemetry Raw packets
 

This is the latest recevied weather packets stored in our database for station/object KB4MLW-13. If no packets are shown the sender has not sent any weather packets the latest 10 day(s).

<< 11 12 13 14 15 16 17 >>
Time Temp. Humidity Pressure Rain* Wind** Luminosity Snow
1788362968 32.78° C 65% 1002.7 hPa 0 mm - - -
1788362880 32.78° C 66% 1002.4 hPa 0 mm - - -
1788362818 32.78° C 65% 1002.6 hPa 0 mm - - -
1788362758 32.78° C 64% 1002.7 hPa 0 mm - - -
1788362698 32.78° C 66% 1002.7 hPa 0 mm - - -
1788362611 32.78° C 66% 1002.6 hPa 0 mm - - -
1788362548 32.78° C 65% 1002.7 hPa 0 mm - - -
1788362488 32.78° C 65% 1002.6 hPa 0 mm - - -
1788362428 32.78° C 64% 1002.6 hPa 0 mm - - -
1788362368 32.78° C 67% 1002.8 hPa 0 mm - - -
1788362308 32.78° C 66% 1002.6 hPa 0 mm - - -
1788362219 32.78° C 65% 1002.7 hPa 0 mm - - -
1788362158 32.78° C 68% 1002.8 hPa 0 mm - - -
1788362069 32.78° C 70% 1002.6 hPa 0 mm - - -
1788362008 32.78° C 68% 1002.7 hPa 0 mm - - -
1788361948 32.78° C 67% 1002.6 hPa 0 mm - - -
1788361888 32.22° C 66% 1002.6 hPa 0 mm - - -
1788361800 32.22° C 69% 1002.8 hPa 0 mm - - -
1788361738 32.22° C 67% 1002.6 hPa 0 mm - - -
1788361648 32.22° C 67% 1002.4 hPa 0 mm - - -
1788361588 32.22° C 69% 1002.9 hPa 0 mm - - -
1788361498 32.22° C 67% 1002.6 hPa 0 mm - - -
1788361438 32.22° C 66% 1002.6 hPa 0 mm - - -
1788361349 32.22° C 67% 1002.8 hPa 0 mm - - -
1788361259 32.22° C 68% 1002.5 hPa 0 mm - - -

* Rain latest hour (hover to see other rain measurements)
** Current wind speed in m/s (hover to see current wind gust speed)